Hourly Data Report for September 27, 2021

WINNIPEG THE FORKS
MANITOBA
Current Station Operator: ECCC - MSC

49°53'18.008" N
97°07'46.007" W
230.00 m
5023262
71579
XWN

Download Data

Hourly Data (September 2021)
Hourly Data Report for September 27, 2021
TIME
LST
Temp Definition
°C
Dew Point Definition
°C
Rel Hum Definition
%
Precip. Amount Definition
mm

Wind Dir Definition
10's deg

Wind Spd Definition
km/h
Visibility Definition
km
Stn Press Definition
kPa
Hmdx Definition


Wind Chill Definition


Weather Definition


00:00 10.2 6.8 80 0.0 36 2   98.36     LegendNANA
01:00 9.7 6.5 81 0.0 1 2   98.37     LegendNANA
02:00 9.3 5.9 79 0.0 7 2   98.37     LegendNANA
03:00 9.1 5.4 78 0.0 9 2   98.39     LegendNANA
04:00 9.0 5.3 77 0.0 9 3   98.39     LegendNANA
05:00 8.7 5.3 79 0.0 9 2   98.39     LegendNANA
06:00 8.0 5.2 83 0.0 7 3   98.39     LegendNANA
07:00 8.1 5.4 83 0.0 10 3   98.41     LegendNANA
08:00 10.2 6.6 78 0.0 31 2   98.41     LegendNANA
09:00 12.6 7.6 72 0.0 21 4   98.42     LegendNANA
10:00 16.0 8.3 60 0.0 21 3   98.38     LegendNANA
11:00 19.1 7.9 48 0.0 21 6   98.34     LegendNANA
12:00 21.0 6.9 40 0.0 22 5   98.28     LegendNANA
13:00 21.9 5.8 35 0.0 21 7   98.21     LegendNANA
14:00 23.4 5.9 32 0.0 21 6   98.12     LegendNANA
15:00 23.8 6.0 32 0.0 21 8   98.03     LegendNANA
16:00 23.5 5.4 31 0.0 22 4   97.99     LegendNANA
17:00 23.1 5.3 32 0.0 28 3   97.96     LegendNANA
18:00 22.0 5.2 33 0.0 27 2   97.96     LegendNANA
19:00 20.4 5.5 38 0.0 31 1   97.97     LegendNANA
20:00 18.8 6.0 43 0.0 9 2   97.95     LegendNANA
21:00 17.8 6.1 46 0.0 10 1   97.94     LegendNANA
22:00 16.8 6.4 50 0.0 32 1   97.90     LegendNANA
23:00 15.7 7.5 58 0.0 20 4   97.88     LegendNANA

Notes on Data Quality.

Legend

  • E = Estimated
  • M = Missing
  • NA = Not Available*
  • [empty] = Indicates an unobserved value
Date modified: